XMM-Newton

operational
NORAD ID: 25989 Int'l Des: 1999-066 Owner: ESA Country: I-ESA
HEOELLIPTICALHEO_ELLIPTICALMOLNIYA_TYPE

About XMM-Newton

Description loading...

Live Position

Loading 3D Globe...

Upcoming Passes

Altitude History

Altitude vs Time

uPlot chart will show altitude changes over time

Two-Line Element Set

1 25989U 99066A 25350.85504937 .00000039 00000-0 00000-0 0 9991
2 25989 65.4114 285.3948 4740682 68.0923 0.1860 0.50133942 22099
Epoch: Dec 16, 2025 • Age: 11 hours

Current Status

Altitude 69329.8 km
Velocity 2.14 km/s
Sub-Earth Point -17.96°S, 79.8°W
Launch Date Dec 10, 1999
Age 26 years
Type other

Technical Details

Classification Payload
Mass 3764.00 kg
Dry Mass 3234.00 kg
Total Mass 3764.00 kg
Length 10.00 m
Diameter 3.00 m
Span 10.00 m
Shape Cyl + 2 Pan
Manufacturer DASCF
Bus Type XMM
Phase Status In Orbit
Owner/State ESA/I-ESA

Large Constellations

Loading constellations...